Weather History for KMRH - February, 2014

Change the Weather History Date:

Saturday, February 8, 2014

  Actual Average (WUND) Record (WUND)
Temperature  
Mean Temperature 40 °F -  
Max Temperature 43 °F - - (-1)
Min Temperature 36 °F - - (-1)
Degree Days  
Heating Degree Days 25    
Moisture  
Dew Point 37 °F    
Average Humidity 90    
Maximum Humidity 96    
Minimum Humidity 79    
Precipitation  
Precipitation 0.37 in - - ()
Sea Level Pressure  
Sea Level Pressure 30.18 in    
Wind  
Wind Speed 8 mph (NNE)    
Max Wind Speed 14 mph    
Max Gust Speed 17 mph    
Visibility 6 miles    
Events Rain    
Averages and records for this station are not official NWS values.
T = Trace of Precipitation, MM = Missing Value Source: NWS Daily Summary

Daily Weather History Graph

Daily Weather History Graph

Search for Another Location

Airport or City:

Trip Planner

Search our weather history database for the weather conditions in past years. The results will help you decide how hot, cold, wet, or windy it might be!

Date:

Astronomy

Feb. 08, 2014 Rise Set
Actual Time 6:59 AM EST 5:42 PM EST
Civil Twilight 6:33 AM EST 6:09 PM EST
Nautical Twilight 6:03 AM EST 6:38 PM EST
Astronomical Twilight 5:33 AM EST 7:08 PM EST
Moon 12:39 PM EST (2/8) 2:06 AM EST (2/8)
Length of Visible Light 11h 36m
Length of Day
10h 43m
Waxing Gibbous, 68% of the Moon is Illuminated
Feb 8
Waxing Gibbous
Feb 14
Full
Feb 22
Last Quarter
Mar 1
New
Mar 8
First Quarter

Hourly Weather History & Observations

Time (EST) Temp. Windchill Dew Point Humidity Pressure Visibility Wind Dir Wind Speed Gust Speed Precip Events Conditions
12:58 AM 37.0 °F 34.5 °F 34.0 °F 89% 30.27 in 9.0 mi NE 3.5 mph - N/A   Clear
1:58 AM 37.0 °F 33.3 °F 34.0 °F 89% 30.25 in 9.0 mi NNE 4.6 mph - N/A   Clear
2:58 AM 37.9 °F 32.7 °F 35.1 °F 89% 30.25 in 10.0 mi NE 6.9 mph - N/A   Clear
3:58 AM 37.9 °F 32.7 °F 35.1 °F 89% 30.23 in 10.0 mi NNE 6.9 mph - N/A   Clear
4:58 AM 39.0 °F 32.3 °F 35.1 °F 86% 30.19 in 10.0 mi NNE 10.4 mph - N/A   Clear
5:58 AM 41.0 °F 36.4 °F 35.1 °F 79% 30.24 in 10.0 mi NNE 6.9 mph - N/A   Overcast
6:58 AM 39.9 °F 34.5 °F 35.1 °F 83% 30.22 in 8.0 mi NE 8.1 mph - 0.01 in Rain Light Rain
7:58 AM 41.0 °F 35.2 °F 36.0 °F 82% 30.22 in 5.0 mi NE 9.2 mph - 0.01 in Rain Light Rain
8:58 AM 39.9 °F 32.5 °F 36.0 °F 86% 30.23 in 4.0 mi NNE 12.7 mph - 0.04 in Rain Rain
9:50 AM 39.9 °F 32.5 °F 37.0 °F 89% 30.22 in 2.5 mi NNE 12.7 mph - 0.05 in Rain Rain
9:58 AM 39.9 °F 32.1 °F 37.0 °F 89% 30.22 in 3.0 mi NNE 13.8 mph - 0.06 in Rain Rain
10:58 AM 41.0 °F 35.2 °F 37.9 °F 89% 30.18 in 2.5 mi NE 9.2 mph - 0.06 in Rain Rain
11:06 AM 41.0 °F 35.8 °F 37.9 °F 89% 30.17 in 3.0 mi NE 8.1 mph - 0.00 in Rain Light Rain
11:26 AM 41.0 °F 34.7 °F 39.0 °F 93% 30.20 in 2.0 mi NNE 10.4 mph - 0.03 in Rain Heavy Rain
11:33 AM 41.0 °F 34.3 °F 39.0 °F 93% 30.20 in 1.5 mi North 11.5 mph 17.3 mph 0.06 in Rain Heavy Rain
11:45 AM 41.0 °F 35.2 °F 39.0 °F 93% 30.20 in 2.0 mi North 9.2 mph - 0.08 in Rain Heavy Rain
11:58 AM 41.0 °F 34.7 °F 39.0 °F 93% 30.19 in 2.5 mi North 10.4 mph - 0.09 in Rain Rain
12:09 PM 41.0 °F 35.2 °F 39.0 °F 93% 30.19 in 3.0 mi North 9.2 mph - 0.02 in Rain Rain
12:58 PM 41.0 °F 35.8 °F 39.0 °F 93% 30.17 in 4.0 mi North 8.1 mph - 0.07 in Rain Light Rain
1:58 PM 41.0 °F 34.3 °F 39.9 °F 96% 30.11 in 4.0 mi North 11.5 mph - 0.03 in Rain Light Rain
2:58 PM 43.0 °F 36.0 °F 41.0 °F 93% 30.11 in 5.0 mi North 13.8 mph - 0.00 in   Overcast
3:58 PM 43.0 °F 36.8 °F 41.0 °F 93% 30.12 in 6.0 mi North 11.5 mph - N/A   Overcast
4:58 PM 43.0 °F 36.8 °F 41.0 °F 93% 30.10 in 6.0 mi North 11.5 mph - N/A   Overcast
5:19 PM 43.0 °F 37.2 °F 39.9 °F 89% 30.11 in 6.0 mi North 10.4 mph - N/A   Partly Cloudy
5:58 PM 41.0 °F 35.2 °F 39.0 °F 93% 30.12 in 6.0 mi North 9.2 mph - N/A   Clear
6:58 PM 39.9 °F 35.8 °F 37.9 °F 93% 30.13 in 7.0 mi North 5.8 mph - N/A   Clear
7:58 PM 39.9 °F 35.1 °F 37.0 °F 89% 30.15 in 6.0 mi North 6.9 mph - N/A   Clear
8:58 PM 39.0 °F 33.4 °F 36.0 °F 89% 30.17 in 7.0 mi North 8.1 mph - N/A   Clear
9:58 PM 37.9 °F 30.9 °F 36.0 °F 93% 30.17 in 8.0 mi North 10.4 mph - N/A   Clear
10:58 PM 37.0 °F 29.8 °F 35.1 °F 93% 30.16 in 8.0 mi North 10.4 mph - N/A   Clear
11:58 PM 36.0 °F 31.1 °F 34.0 °F 93% 30.16 in 6.0 mi North 5.8 mph - N/A   Clear